Regional Weather Roundup
Issued by NWS

Home | Current Version | Previous Version | Text Only | Print | Product List | Glossary On
Versions: 1 2 3 4 5 6 7 8 9 10 11 12 13 14 15 16 17 18 19 20 21 22 23 24 25 26 27 28 29 30 31 32 33 34 35 36 37 38 39 40 41 42 43 44 45 46 47 48 49 50
000
ASUS43 KIND 261709
RWRIN

WEATHER ROUNDUP FOR INDIANA
NATIONAL WEATHER SERVICE INDIANAPOLIS IN
1200 PM EST WED NOV 26 2014

NOTE: "FAIR" INDICATES FEW OR NO CLOUDS BELOW 12,000 FEET WITH NO
SIGNIFICANT WEATHER AND/OR OBSTRUCTIONS TO VISIBILITY.

* - STATION DOES NOT REPORT WEATHER SUCH AS PRECIPITATION OR FOG.

+ - STATION NOT QUALITY CONTROLLED BY THE NATIONAL WEATHER SERVICE.
    USE DATA WITH CAUTION...ESPECIALLY DEWPOINT AND RELATIVE
    HUMIDITY OBSERVATIONS.

INZ001>003-010>013-019-020-261800-
NORTHWEST INDIANA

CITY           SKY/WX    TMP DP  RH WIND       PRES   REMARKS
GARY /AIRPORT/ CLOUDY    27  19  74 SE9       30.17S WCI  17
KNOX *+        CLOUDY    27  20  76 SE7       30.15S WCI  19
LA PORTE +     CLOUDY    28  22  76 SE5       30.15F WCI  23
MICHIGAN CITY+ CLOUDY    27  18  69 CALM      30.16F
MONTICELLO +   CLOUDY    27  21  77 E6        30.14S WCI  20
RENSSELAER +   CLOUDY    28  25  86 E6        30.14F WCI  22
VALPARAISO     CLOUDY    26  19  74 SE8       30.15F WCI  18

$$

LMZ046-743>745-261800-
SOUTHERN LAKE MICHIGAN

STATION/POSITION TIME  TEMP WIND        PRES
                       AIR  DIR/SP/G
                 (UTC) (F)  (DEG/KT/KT) (MB)
MICHIGAN CITY    1700   26  100/  7/ 10   N/A

$$

INZ004-005-014>016-021>024-261800-
NORTH CENTRAL INDIANA

CITY           SKY/WX    TMP DP  RH WIND       PRES   REMARKS
ELKHART        CLOUDY    27  18  69 E9        30.14F WCI  17
GOSHEN         CLOUDY    28  20  71 E10       30.12F WCI  19
LOGANSPORT +   CLOUDY    28  21  74 E6        30.14F WCI  22
PERU/GRISSOM   CLOUDY    27  24  89 E8        30.12F WCI  19
ROCHESTER +    CLOUDY    30  23  74 E9        30.13F WCI  22
SOUTH BEND     CLOUDY    27  19  72 E7        30.15F WCI  19
WARSAW +       CLOUDY    28  21  74 SE7       30.13F WCI  21

$$

INZ006>009-017-018-025>027-261800-
NORTHEAST INDIANA

CITY           SKY/WX    TMP DP  RH WIND       PRES   REMARKS
ANGOLA *+      CLOUDY    27  19  74 SE8       30.12F WCI  18
AUBURN +       CLOUDY    30  21  69 E3        30.13F
FORT WAYNE     FLURRIES  28  21  75 E5        30.14F WCI  23
HUNTINGTON +   CLOUDY    28  22  78 SE7       30.12F WCI  20

$$

INZ028-029-035-036-043>045-051>053-261800-
WEST CENTRAL INDIANA

CITY           SKY/WX    TMP DP  RH WIND       PRES   REMARKS
GREENCASTLE +  PTSUNNY   28  23  80 SE7       30.12F WCI  21
LAFAYETTE      CLOUDY    27  20  75 E8        30.14F WCI  19
TERRE HAUTE    CLOUDY    28  22  78 SE7       30.13F WCI  21

$$

INZ030>032-037>040-046>048-054>057-064-065-261800-
CENTRAL INDIANA

CITY           SKY/WX    TMP DP  RH WIND       PRES   REMARKS
CP ATTERBURY + CLOUDY    32  25  74 SE3       30.13S
COLUMBUS       PTSUNNY   32  25  74 SE3       30.12F
FRANKFORT +    CLOUDY    29  24  80 E8        30.13F WCI  21
INDIANAPOLIS   PTSUNNY   30  21  69 SE7       30.11S WCI  23
-EAGLE CREEK   CLOUDY    30  22  72 SE7       30.11F WCI  23
KOKOMO *+      CLOUDY    27  21  80 SE9       30.12F WCI  17
MARION +         N/A     27  20  75 E7        30.12F WCI  20
MT COMFORT *+  CLOUDY    30  18  59 SE5       30.11F WCI  25
SHELBYVILLE    CLOUDY    32  23  69 E3        30.10F
ZIONSVILLE +   CLOUDY    30  21  70 SE8       30.12S WCI  22

$$

INZ033-034-041-042-049-050-058-059-261800-
EAST CENTRAL INDIANA

CITY           SKY/WX    TMP DP  RH WIND       PRES   REMARKS
MUNCIE         CLOUDY    28  22  78 E6        30.11F WCI  22

$$

INZ060-061-067>069-081>083-085>088-261800-
SOUTHWEST INDIANA

CITY           SKY/WX    TMP DP  RH WIND       PRES   REMARKS
EVANSVILLE     SUNNY     35  27  72 S3        30.14F
HUNTINGBURG *+ MOSUNNY   36  27  69 E3        30.13F
WASHINGTON +   MOSUNNY   33  27  76 E3        30.12F

$$

INZ062-063-066-070>080-084-089>092-261800-
SOUTH CENTRAL AND SOUTHEAST INDIANA

CITY           SKY/WX    TMP DP  RH WIND       PRES   REMARKS
BLOOMINGTON    CLOUDY    32  25  75 VRB3      30.11F

$$



USA.gov is the U.S. government's official web portal to all federal, state and local government web resources and services.